Amsterdam, Netherlands

9:15 AM CEST on October 15, 2019 (GMT +0200)
Schiphol

Weather History for EHAM - August, 2019

Change the Weather History Date:

Friday, August 16, 2019

  Actual Average Record
Temperature  
Mean Temperature 60 °F -  
Max Temperature 70 °F 66 °F 84 °F (2002)
Min Temperature 51 °F 53 °F 48 °F (1998)
Degree Days  
Heating Degree Days 4    
Growing Degree Days 10 (Base 50)    
Moisture  
Dew Point 54 °F    
Average Humidity 72    
Maximum Humidity 94    
Minimum Humidity 49    
Precipitation  
Precipitation 0.04 in - - ()
Sea Level Pressure  
Sea Level Pressure 29.94 in    
Wind  
Wind Speed 8 mph ()    
Max Wind Speed 18 mph    
Max Gust Speed -    
Visibility 8.6 miles    
Events Fog , Rain    
Averages and records for this station are not official NWS values.
T = Trace of Precipitation, MM = Missing Value Source: Averaged Metar Reports

Daily Weather History Graph

Daily Weather History Graph

Search for Another Location

Airport or City:

Astronomy

Aug. 16, 2019 Rise Set
Actual Time 6:25 AM CEST 9:04 PM CEST
Civil Twilight 5:46 AM CEST 9:42 PM CEST
Nautical Twilight 4:57 AM CEST 10:31 PM CEST
Astronomical Twilight 3:56 AM CEST 11:30 PM CEST
Moon 9:52 PM CEST (8/16) 7:00 AM CEST (8/16)
Length of Visible Light 15h 55m
Length of Day
14h 39m
Full, 99% of the Moon is Illuminated
Aug 16
Full
Aug 23
Last Quarter
Aug 30
New
Sep 6
First Quarter
Sep 14
Full

Hourly Weather History & Observations

Time (CEST) Temp. Dew Point Humidity Pressure Visibility Wind Dir Wind Speed Gust Speed Precip Events Conditions
12:00 AM 60 °F 52 °F 66% 29.99 in 16 mi West 8.9 mph - -   Partly Cloudy
12:25 AM 60.8 °F 51.8 °F 72% 29.98 in 6.2 mi West 6.9 mph - N/A   Partly Cloudy
12:55 AM 59.0 °F 50.0 °F 72% 29.98 in 6.2 mi West 6.9 mph - N/A   Partly Cloudy
1:25 AM 57.2 °F 50.0 °F 77% 29.98 in 6.2 mi West 6.9 mph - N/A   Partly Cloudy
1:55 AM 55.4 °F 50.0 °F 82% 29.98 in 6.2 mi West 4.6 mph - N/A   Partly Cloudy
2:00 AM 55 °F 50 °F 76% 30.00 in 17 mi WSW 2.2 mph - -   Partly Cloudy
2:25 AM 53.6 °F 48.2 °F 82% 29.98 in 6.2 mi Variable 2.3 mph - N/A   Partly Cloudy
2:55 AM 53.6 °F 50.0 °F 88% 29.98 in 6.2 mi SSW 2.3 mph - N/A   Partly Cloudy
3:00 AM 54 °F 49 °F 77% 30.00 in 16 mi SSW 4.5 mph - -   Partly Cloudy
3:25 AM 53.6 °F 48.2 °F 82% 29.98 in 6.2 mi SSW 5.8 mph - N/A   Partly Cloudy
3:55 AM 53.6 °F 48.2 °F 82% 29.98 in 6.2 mi SSW 5.8 mph - N/A   Partly Cloudy
4:00 AM 53 °F 49 °F 80% 30.00 in 17 mi SSW 6.7 mph - -   Partly Cloudy
4:25 AM 53.6 °F 50.0 °F 88% 29.98 in 6.2 mi South 3.5 mph - N/A   Partly Cloudy
4:55 AM 51.8 °F 48.2 °F 88% 29.98 in 6.2 mi South 5.8 mph - N/A   Partly Cloudy
5:25 AM 51.8 °F 50.0 °F 94% 30.01 in 6.2 mi South 4.6 mph - N/A   Partly Cloudy
5:55 AM 53.6 °F 51.8 °F 94% 30.01 in 6.2 mi South 4.6 mph - N/A Fog Shallow Fog
6:00 AM 54 °F 52 °F 89% 30.01 in 4 mi South 4.5 mph - -   Mist
6:25 AM 55.4 °F 53.6 °F 94% 30.01 in 6.2 mi South 5.8 mph - N/A   Scattered Clouds
6:55 AM 55.4 °F 53.6 °F 94% 30.01 in 6.2 mi South 5.8 mph - N/A   Scattered Clouds
7:25 AM 57.2 °F 53.6 °F 88% 30.01 in 6.2 mi South 6.9 mph - N/A   Partly Cloudy
7:55 AM 57.2 °F 53.6 °F 88% 29.98 in 6.2 mi South 5.8 mph - N/A   Partly Cloudy
8:00 AM 58 °F 54 °F 84% 30.00 in 17 mi South 4.5 mph - -   Partly Cloudy
8:25 AM 59.0 °F 55.4 °F 88% 29.98 in 6.2 mi South 4.6 mph - N/A   Partly Cloudy
8:55 AM 60.8 °F 55.4 °F 82% 30.01 in 6.2 mi South 5.8 mph - N/A   Partly Cloudy
9:00 AM 62 °F 55 °F 73% 30.01 in 16 mi South 6.7 mph - -   Partly Cloudy
9:25 AM 64.4 °F 55.4 °F 73% 30.01 in 6.2 mi South 8.1 mph - N/A   Partly Cloudy
9:55 AM 66.2 °F 53.6 °F 64% 29.98 in 6.2 mi SSW 9.2 mph - N/A   Mostly Cloudy
10:00 AM 65 °F 53 °F 57% 30.01 in 18 mi SSW 8.9 mph - -   Partly Cloudy
10:25 AM 66.2 °F 51.8 °F 60% 29.98 in 6.2 mi SSW 10.4 mph - N/A   Scattered Clouds
10:55 AM 66.2 °F 53.6 °F 64% 29.98 in 6.2 mi SSW 12.7 mph - N/A   Mostly Cloudy
11:00 AM 66 °F 54 °F 56% 29.99 in 22 mi SSW 11.2 mph - -   Partly Cloudy
11:25 AM 68.0 °F 55.4 °F 64% 29.98 in 6.2 mi SSW 13.8 mph - N/A   Mostly Cloudy
11:55 AM 68.0 °F 53.6 °F 60% 29.98 in 6.2 mi SSW 16.1 mph - N/A   Mostly Cloudy
12:00 PM 68 °F 54 °F 50% 29.98 in 19 mi SSW 15.7 mph - -   Partly Cloudy
12:25 PM 68.0 °F 53.6 °F 60% 29.98 in 6.2 mi SSW 15.0 mph - N/A   Scattered Clouds
12:55 PM 69.8 °F 55.4 °F 60% 29.95 in 6.2 mi SSW 13.8 mph - N/A   Mostly Cloudy
1:00 PM 69 °F 55 °F 51% 29.97 in 19 mi South 15.7 mph - -   Partly Cloudy
1:25 PM 69.8 °F 53.6 °F 56% 29.95 in 6.2 mi SSW 11.5 mph - N/A   Partly Cloudy
1:55 PM 69.8 °F 53.6 °F 56% 29.95 in 6.2 mi SSW 18.4 mph - N/A   Partly Cloudy
2:00 PM 69 °F 54 °F 49% 29.96 in 19 mi SSW 15.7 mph - -   Partly Cloudy
2:25 PM 68.0 °F 55.4 °F 64% 29.95 in 6.2 mi SSW 15.0 mph - N/A   Partly Cloudy
2:55 PM 69.8 °F 55.4 °F 60% 29.95 in 6.2 mi SW 11.5 mph - N/A   Partly Cloudy
3:00 PM 69 °F 54 °F 50% 29.94 in 22 mi SSW 11.2 mph - -   Partly Cloudy
3:25 PM 69.8 °F 55.4 °F 60% 29.92 in 6.2 mi SW 13.8 mph - N/A   Partly Cloudy
3:55 PM 69.8 °F 55.4 °F 60% 29.92 in 6.2 mi SW 13.8 mph - N/A   Partly Cloudy
4:00 PM 70 °F 56 °F 52% 29.92 in 17 mi SW 13.4 mph - -   Partly Cloudy
4:25 PM 69.8 °F 57.2 °F 64% 29.89 in 6.2 mi SSW 15.0 mph - N/A   Partly Cloudy
4:55 PM 69.8 °F 57.2 °F 64% 29.89 in 6.2 mi SW 15.0 mph - N/A   Partly Cloudy
5:00 PM 69 °F 55 °F 51% 29.90 in 19 mi SSW 15.7 mph - -   Partly Cloudy
5:25 PM 69.8 °F 57.2 °F 64% 29.89 in 6.2 mi SSW 13.8 mph - N/A   Scattered Clouds
5:55 PM 69.8 °F 57.2 °F 64% 29.89 in 6.2 mi SSW 12.7 mph - N/A   Partly Cloudy
6:25 PM 68.0 °F 55.4 °F 64% 29.86 in 6.2 mi South 11.5 mph - N/A   Partly Cloudy
6:55 PM 68.0 °F 55.4 °F 64% 29.86 in 6.2 mi South 11.5 mph - N/A Rain Light Rain
7:00 PM 68 °F 56 °F 55% 29.87 in 25 mi South 13.4 mph - - Rain Light Rain Showers
7:25 PM 68.0 °F 55.4 °F 64% 29.86 in 6.2 mi South 11.5 mph - N/A Rain Light Rain
7:55 PM 68.0 °F 57.2 °F 68% 29.83 in 6.2 mi South 10.4 mph - N/A Rain Light Rain
8:25 PM 66.2 °F 59.0 °F 78% 29.83 in 6.2 mi South 8.1 mph - N/A Rain Light Rain
8:55 PM 64.4 °F 59.0 °F 83% 29.83 in 6.2 mi SSE 9.2 mph - N/A Rain Light Rain
9:00 PM 65 °F 59 °F 74% 29.83 in 16 mi SSE 8.9 mph - - Rain Light Rain
9:25 PM 64.4 °F 59.0 °F 83% 29.83 in 6.2 mi SSE 9.2 mph - N/A Rain Light Rain
9:55 PM 64.4 °F 59.0 °F 83% 29.80 in 6.2 mi SSE 9.2 mph - N/A Rain Light Rain
10:00 PM 64 °F 58 °F 77% 29.82 in 22 mi SSE 8.9 mph - - Rain Light Drizzle
10:25 PM 64.4 °F 59.0 °F 83% 29.80 in 6.2 mi South 11.5 mph - N/A Rain Light Rain
10:55 PM 62.6 °F 59.0 °F 88% 29.80 in 6.2 mi SSW 8.1 mph - N/A Rain Light Rain
11:00 PM 63 °F 60 °F 85% 29.81 in 12 mi SSW 8.9 mph - - Rain Heavy Rain
11:25 PM 62.6 °F 60.8 °F 94% 29.80 in 6.2 mi South 5.8 mph - N/A Rain Light Rain
11:55 PM 62.6 °F 59.0 °F 88% 29.77 in 6.2 mi South 8.1 mph - N/A Rain Light Rain